Location: Unspecified
(0.0000°N, 0.0000°E)
Time: 14:59:06
(UTC+00:00)

Explorer 11/Cluster Stage 4 - Pass Details

Date: 27 February 2024
Orbit: 465 x 1219 km, 28.8° (Epoch: 24 April)

Event Time Altitude Azimuth Distance (km) Brightness Sun altitude
Rises 18:44:58 0° 225° (SW) 3,177 10.7 -8.0°
Reaches altitude 10° 18:47:21 10° 217° (SW) 2,369 9.8 -8.6°
Maximum altitude 18:52:45 41° 147° (SSE) 1,310 7.5 -9.9°
Enters shadow 18:58:16 14° 83° (E) 2,551 8.5 -11.3°
